This is the latest recevied weather packets stored in our database for station/object SV7GBF-2. If no packets are shown the sender has not sent any weather packets the latest 10 day(s).
| Time | Temp. | Humidity | Pressure | Rain* | Wind** | Luminosity | Snow |
|---|---|---|---|---|---|---|---|
| 1788130443 | 23.33° C | 52% | 1017 hPa | - | - | - | - |
| 1788129843 | 23.89° C | 53% | 1017 hPa | - | - | - | - |
| 1788129243 | 23.89° C | 56% | 1016 hPa | - | - | - | - |
| 1788128644 | 23.33° C | 55% | 1017 hPa | - | - | - | - |
| 1788127444 | 23.89° C | 53% | 1017 hPa | - | - | - | - |
| 1788125643 | 23.89° C | 53% | 1017 hPa | - | - | - | - |
| 1788125044 | 24.44° C | 48% | 1016 hPa | - | - | - | - |
| 1788123243 | 25° C | 50% | 1016 hPa | - | - | - | - |
| 1788122645 | 24.44° C | 51% | 1016 hPa | - | - | - | - |
| 1788122043 | 25° C | 52% | 1016 hPa | - | - | - | - |
| 1788121443 | 24.44° C | 51% | 1017 hPa | - | - | - | - |
| 1788120844 | 25° C | 50% | 1017 hPa | - | - | - | - |
| 1788120243 | 25.56° C | 55% | 1017 hPa | - | - | - | - |
| 1788119943 | 25° C | 56% | 1017 hPa | - | - | - | - |
| 1788119343 | 25° C | 58% | 1017 hPa | - | - | - | - |
| 1788118743 | 25° C | 56% | 1017 hPa | - | - | - | - |
| 1788118143 | 25.56° C | 53% | 1017 hPa | - | - | - | - |
| 1788117543 | 25.56° C | 55% | 1017 hPa | - | - | - | - |
| 1788114844 | 26.11° C | 56% | 1016 hPa | - | - | - | - |
| 1788114244 | 26.11° C | 57% | 1016 hPa | - | - | - | - |
| 1788113643 | 26.67° C | 54% | 1016 hPa | - | - | - | - |
| 1788113043 | 26.67° C | 52% | 1016 hPa | - | - | - | - |
| 1788111845 | 27.22° C | 47% | 1016 hPa | - | - | - | - |
| 1788111244 | 27.78° C | 46% | 1016 hPa | - | - | - | - |
| 1788109444 | 28.33° C | 45% | 1015 hPa | - | - | - | - |
* Rain since midnight (hover to see other rain measurements)
** Current wind speed in m/s (hover to see current wind gust speed)